Powrót do katalogu

KUIPER-00478

AktywnyŁącznośćLEO
NORAD 68875·PAYLOAD·🇺🇸 United States

Wystrzelony Apr 28, 2026 z Cape Canaveral Space Force Station

Loading…

Następne Przeloty (najbliższe 24 godziny)

TLE

ŚwieżeSource: CelesTrak SupGP

Epoka: Sep 14, 2026, 22:32 UTC

1 68875C 26095M   26257.93954861 -.00019720  00000+0 -25819-2 0  2577
2 68875  51.8984 196.2787 0000957  76.6575 146.7694 14.79943039    15

Śledź KUIPER-00478 w czasie rzeczywistym z AllMySat

Download on the App Store